owner,sensor,date,latitude,longitude,vertical_datum,sea_water_temperature,qcFlag
BP,ioos:station:wmo:42369:4,2020-08-04T13:20:00Z,27.1988,-90.2836,1342.0,4.3,11113222
BP,ioos:station:wmo:42369:4,2020-08-04T13:40:00Z,27.1987,-90.2836,1342.0,4.3,11113222
BP,ioos:station:wmo:42369:4,2020-08-04T14:00:00Z,27.1987,-90.2836,1342.0,4.3,11113222
BP,ioos:station:wmo:42369:4,2020-08-04T14:20:00Z,27.1986,-90.2835,1342.0,4.3,11113222
BP,ioos:station:wmo:42369:4,2020-08-04T14:40:00Z,27.1986,-90.2834,1342.0,4.3,11113222
BP,ioos:station:wmo:42369:4,2020-08-04T15:00:00Z,27.1986,-90.2835,1342.0,4.3,11113222
BP,ioos:station:wmo:42369:4,2020-08-04T15:20:00Z,27.1986,-90.2835,1342.0,4.3,11113222
BP,ioos:station:wmo:42369:4,2020-08-04T15:40:00Z,27.1986,-90.2834,1342.0,4.3,11113222
BP,ioos:station:wmo:42369:4,2020-08-04T16:00:00Z,27.1987,-90.2834,1342.0,4.3,11113222
BP,ioos:station:wmo:42369:4,2020-08-04T16:20:00Z,27.1986,-90.2834,1342.0,4.3,11113222
BP,ioos:station:wmo:42369:4,2020-08-04T16:40:00Z,27.1986,-90.2833,1342.0,4.3,11113222
BP,ioos:station:wmo:42369:4,2020-08-04T17:00:00Z,27.1986,-90.2833,1342.0,4.3,11113222
BP,ioos:station:wmo:42369:4,2020-08-04T17:20:00Z,27.1985,-90.2833,1342.0,4.3,11113222
BP,ioos:station:wmo:42369:4,2020-08-04T17:40:00Z,27.1985,-90.2832,1342.0,4.3,11113222
BP,ioos:station:wmo:42369:4,2020-08-04T18:00:00Z,27.1985,-90.2833,1342.0,4.3,11113222
BP,ioos:station:wmo:42369:4,2020-08-04T18:20:00Z,27.1985,-90.2833,1342.0,4.3,11113222
BP,ioos:station:wmo:42369:4,2020-08-04T18:40:00Z,27.1984,-90.2833,1342.0,4.3,11113222
BP,ioos:station:wmo:42369:4,2020-08-04T19:00:00Z,27.1984,-90.2833,1342.0,4.3,11113222
BP,ioos:station:wmo:42369:4,2020-08-04T19:20:00Z,27.1984,-90.2833,1342.0,4.3,11113222
BP,ioos:station:wmo:42369:4,2020-08-04T19:40:00Z,27.1984,-90.2832,1342.0,4.3,11113222
BP,ioos:station:wmo:42369:4,2020-08-04T20:00:00Z,27.1984,-90.2832,1342.0,4.3,11113222
BP,ioos:station:wmo:42369:4,2020-08-04T20:20:00Z,27.1984,-90.2832,1342.0,4.3,11113222
BP,ioos:station:wmo:42369:4,2020-08-04T20:40:00Z,27.1984,-90.2833,1342.0,4.3,11113222
BP,ioos:station:wmo:42369:4,2020-08-04T21:00:00Z,27.1984,-90.2832,1342.0,4.3,11113222
BP,ioos:station:wmo:42369:4,2020-08-04T21:20:00Z,27.1984,-90.2833,1342.0,4.3,11113222
BP,ioos:station:wmo:42369:4,2020-08-04T21:40:00Z,27.1984,-90.2833,1342.0,4.3,11113222
BP,ioos:station:wmo:42369:4,2020-08-04T22:00:00Z,27.1984,-90.2834,1342.0,4.3,11113222
BP,ioos:station:wmo:42369:4,2020-08-04T22:20:00Z,27.1984,-90.2835,1342.0,4.3,11113222
BP,ioos:station:wmo:42369:4,2020-08-04T22:40:00Z,27.1984,-90.2836,1342.0,4.3,11113222
BP,ioos:station:wmo:42369:4,2020-08-04T23:00:00Z,27.1984,-90.2836,1342.0,4.3,11113222
BP,ioos:station:wmo:42369:4,2020-08-04T23:20:00Z,27.1985,-90.2836,1342.0,4.3,11113222
BP,ioos:station:wmo:42369:4,2020-08-04T23:40:00Z,27.1985,-90.2837,1342.0,4.3,11113222
BP,ioos:station:wmo:42369:4,2020-08-05T01:00:00Z,27.1985,-90.2840,1342.0,4.3,11113222
BP,ioos:station:wmo:42369:4,2020-08-05T00:00:00Z,27.1985,-90.2838,1342.0,4.3,11113222
BP,ioos:station:wmo:42369:4,2020-08-05T00:20:00Z,27.1985,-90.2839,1342.0,4.3,11113222
BP,ioos:station:wmo:42369:4,2020-08-05T00:40:00Z,27.1985,-90.2840,1342.0,4.3,11113222
BP,ioos:station:wmo:42369:4,2020-08-05T01:20:00Z,27.1986,-90.2841,1342.0,4.3,11113222
BP,ioos:station:wmo:42369:4,2020-08-05T01:40:00Z,27.1986,-90.2841,1342.0,4.3,11113222
BP,ioos:station:wmo:42369:4,2020-08-05T02:00:00Z,27.1987,-90.2842,1342.0,4.3,11113222
BP,ioos:station:wmo:42369:4,2020-08-05T02:20:00Z,27.1987,-90.2842,1342.0,4.3,11113222
BP,ioos:station:wmo:42369:4,2020-08-05T02:40:00Z,27.1987,-90.2842,1342.0,4.3,11113222
BP,ioos:station:wmo:42369:4,2020-08-05T03:00:00Z,27.1987,-90.2843,1342.0,4.3,11113222
BP,ioos:station:wmo:42369:4,2020-08-05T03:20:00Z,27.1987,-90.2844,1342.0,4.3,11113222
BP,ioos:station:wmo:42369:4,2020-08-05T03:40:00Z,27.1987,-90.2845,1342.0,4.3,11113222
BP,ioos:station:wmo:42369:4,2020-08-05T04:00:00Z,27.1987,-90.2845,1342.0,4.3,11113222
BP,ioos:station:wmo:42369:4,2020-08-05T04:20:00Z,27.1988,-90.2846,1342.0,4.3,11113222
BP,ioos:station:wmo:42369:4,2020-08-05T04:40:00Z,27.1988,-90.2846,1342.0,4.3,11113222
BP,ioos:station:wmo:42369:4,2020-08-05T05:00:00Z,27.1988,-90.2846,1342.0,4.3,11113222
BP,ioos:station:wmo:42369:4,2020-08-05T05:20:00Z,27.1988,-90.2846,1342.0,4.3,11113222
BP,ioos:station:wmo:42369:4,2020-08-05T06:20:00Z,27.1989,-90.2849,1342.0,4.3,11113222
BP,ioos:station:wmo:42369:4,2020-08-05T05:40:00Z,27.1988,-90.2846,1342.0,4.3,11113222
BP,ioos:station:wmo:42369:4,2020-08-05T06:00:00Z,27.1989,-90.2847,1342.0,4.3,11113222
BP,ioos:station:wmo:42369:4,2020-08-05T06:40:00Z,27.1989,-90.2849,1342.0,4.2,11113222
BP,ioos:station:wmo:42369:4,2020-08-05T07:00:00Z,27.1990,-90.2849,1342.0,4.2,11113222
BP,ioos:station:wmo:42369:4,2020-08-05T07:20:00Z,27.1990,-90.2848,1342.0,4.2,11113222
BP,ioos:station:wmo:42369:4,2020-08-05T08:00:00Z,27.1990,-90.2846,1342.0,4.2,11113222
BP,ioos:station:wmo:42369:4,2020-08-05T07:40:00Z,27.1990,-90.2847,1342.0,4.2,11113222
BP,ioos:station:wmo:42369:4,2020-08-05T08:20:00Z,27.1990,-90.2846,1342.0,4.2,11113222
BP,ioos:station:wmo:42369:4,2020-08-05T08:40:00Z,27.1989,-90.2845,1342.0,4.2,11113222
BP,ioos:station:wmo:42369:4,2020-08-05T09:00:00Z,27.1989,-90.2845,1342.0,4.2,11113222
BP,ioos:station:wmo:42369:4,2020-08-05T09:20:00Z,27.1990,-90.2845,1342.0,4.2,11113222
BP,ioos:station:wmo:42369:4,2020-08-05T09:40:00Z,27.1989,-90.2843,1342.0,4.2,11113222
BP,ioos:station:wmo:42369:4,2020-08-05T10:00:00Z,27.1989,-90.2842,1342.0,4.2,11113222
BP,ioos:station:wmo:42369:4,2020-08-05T10:20:00Z,27.1989,-90.2841,1342.0,4.2,11113222
BP,ioos:station:wmo:42369:4,2020-08-05T10:40:00Z,27.1989,-90.2840,1342.0,4.2,11113222
BP,ioos:station:wmo:42369:4,2020-08-05T11:00:00Z,27.1989,-90.2838,1342.0,4.2,11113222
BP,ioos:station:wmo:42369:4,2020-08-05T11:20:00Z,27.1988,-90.2836,1342.0,4.2,11113222
BP,ioos:station:wmo:42369:4,2020-08-05T11:40:00Z,27.1988,-90.2834,1342.0,4.2,11113222
BP,ioos:station:wmo:42369:4,2020-08-05T12:00:00Z,27.1988,-90.2833,1342.0,4.2,11113222
BP,ioos:station:wmo:42369:4,2020-08-05T12:20:00Z,27.1988,-90.2832,1342.0,4.2,11113222
BP,ioos:station:wmo:42369:4,2020-08-05T12:40:00Z,27.1988,-90.2831,1342.0,4.2,11113222
BP,ioos:station:wmo:42369:4,2020-08-05T13:00:00Z,27.1988,-90.2830,1342.0,4.2,11113222
BP,ioos:station:wmo:42369:4,2020-08-05T14:00:00Z,27.1987,-90.2829,1342.0,4.2,11113222
BP,ioos:station:wmo:42369:4,2020-08-05T15:00:00Z,27.1988,-90.2828,1342.0,4.2,11113222
BP,ioos:station:wmo:42369:4,2020-08-05T13:20:00Z,27.1988,-90.2830,1342.0,4.2,11113222
BP,ioos:station:wmo:42369:4,2020-08-05T13:40:00Z,27.1987,-90.2830,1342.0,4.2,11113222
BP,ioos:station:wmo:42369:4,2020-08-05T15:20:00Z,27.1982,-90.2821,1342.0,4.2,11113222
BP,ioos:station:wmo:42369:4,2020-08-05T20:00:00Z,27.1982,-90.2821,1342.0,4.2,11113222
BP,ioos:station:wmo:42369:4,2020-08-05T20:20:00Z,27.1980,-90.2819,1342.0,4.2,11113222
BP,ioos:station:wmo:42369:4,2020-08-05T14:20:00Z,27.1988,-90.2828,1342.0,4.2,11113222
BP,ioos:station:wmo:42369:4,2020-08-05T14:40:00Z,27.1987,-90.2828,1342.0,4.2,11113222
BP,ioos:station:wmo:42369:4,2020-08-05T15:40:00Z,27.1982,-90.2821,1342.0,4.2,11113222
BP,ioos:station:wmo:42369:4,2020-08-05T16:00:00Z,27.1982,-90.2820,1342.0,4.2,11113222
BP,ioos:station:wmo:42369:4,2020-08-05T16:20:00Z,27.1982,-90.2820,1342.0,4.2,11113222
BP,ioos:station:wmo:42369:4,2020-08-05T16:40:00Z,27.1981,-90.2820,1342.0,4.2,11113222
BP,ioos:station:wmo:42369:4,2020-08-05T18:00:00Z,27.1982,-90.2821,1342.0,4.2,11113222
BP,ioos:station:wmo:42369:4,2020-08-05T18:20:00Z,27.1982,-90.2820,1342.0,4.2,11113222
BP,ioos:station:wmo:42369:4,2020-08-05T22:00:00Z,27.1978,-90.2829,1342.0,4.2,11113222
BP,ioos:station:wmo:42369:4,2020-08-05T17:00:00Z,27.1981,-90.2821,1342.0,4.2,11113222
BP,ioos:station:wmo:42369:4,2020-08-05T17:20:00Z,27.1981,-90.2820,1342.0,4.2,11113222
BP,ioos:station:wmo:42369:4,2020-08-05T17:40:00Z,27.1981,-90.2820,1342.0,4.2,11113222
BP,ioos:station:wmo:42369:4,2020-08-05T18:40:00Z,27.1981,-90.2821,1342.0,4.2,11113222
BP,ioos:station:wmo:42369:4,2020-08-05T19:00:00Z,27.1981,-90.2820,1342.0,4.2,11113222
BP,ioos:station:wmo:42369:4,2020-08-05T19:20:00Z,27.1981,-90.2819,1342.0,4.2,11113222
BP,ioos:station:wmo:42369:4,2020-08-05T19:40:00Z,27.1980,-90.2820,1342.0,4.2,11113222
BP,ioos:station:wmo:42369:4,2020-08-05T20:40:00Z,27.1979,-90.2820,1342.0,4.2,11113222
BP,ioos:station:wmo:42369:4,2020-08-05T21:00:00Z,27.1979,-90.2821,1342.0,4.2,11113222
BP,ioos:station:wmo:42369:4,2020-08-05T21:20:00Z,27.1979,-90.2822,1342.0,4.2,11113222
BP,ioos:station:wmo:42369:4,2020-08-05T21:40:00Z,27.1979,-90.2825,1342.0,4.2,11113222
BP,ioos:station:wmo:42369:4,2020-08-05T22:20:00Z,27.1979,-90.2830,1342.0,4.3,11113222
BP,ioos:station:wmo:42369:4,2020-08-05T22:40:00Z,27.1979,-90.2832,1342.0,4.3,11113222
BP,ioos:station:wmo:42369:4,2020-08-06T00:00:00Z,27.1982,-90.2839,1342.0,4.3,11113222
BP,ioos:station:wmo:42369:4,2020-08-05T23:00:00Z,27.1980,-90.2835,1342.0,4.3,11113222
BP,ioos:station:wmo:42369:4,2020-08-05T23:20:00Z,27.1980,-90.2836,1342.0,4.3,11113222
BP,ioos:station:wmo:42369:4,2020-08-05T23:40:00Z,27.1981,-90.2838,1342.0,4.3,11113222
BP,ioos:station:wmo:42369:4,2020-08-06T00:20:00Z,27.1982,-90.2840,1342.0,4.3,11113222
BP,ioos:station:wmo:42369:4,2020-08-06T00:40:00Z,27.1983,-90.2841,1342.0,4.3,11113222
BP,ioos:station:wmo:42369:4,2020-08-06T01:00:00Z,27.1984,-90.2844,1342.0,4.3,11113222
BP,ioos:station:wmo:42369:4,2020-08-06T01:20:00Z,27.1985,-90.2845,1342.0,4.3,11113222
BP,ioos:station:wmo:42369:4,2020-08-06T01:40:00Z,27.1985,-90.2847,1342.0,4.3,11113222
BP,ioos:station:wmo:42369:4,2020-08-06T02:00:00Z,27.1986,-90.2848,1342.0,4.3,11113222
BP,ioos:station:wmo:42369:4,2020-08-06T02:20:00Z,27.1986,-90.2850,1342.0,4.2,11113222
BP,ioos:station:wmo:42369:4,2020-08-06T02:40:00Z,27.1987,-90.2851,1342.0,4.2,11113222
BP,ioos:station:wmo:42369:4,2020-08-06T03:00:00Z,27.1987,-90.2851,1342.0,4.2,11113222
BP,ioos:station:wmo:42369:4,2020-08-06T03:20:00Z,27.1987,-90.2853,1342.0,4.2,11113222
BP,ioos:station:wmo:42369:4,2020-08-06T03:40:00Z,27.1988,-90.2853,1342.0,4.2,11113222
BP,ioos:station:wmo:42369:4,2020-08-06T04:00:00Z,27.1989,-90.2854,1342.0,4.2,11113222
BP,ioos:station:wmo:42369:4,2020-08-06T06:00:00Z,27.1991,-90.2853,1342.0,4.2,11113222
BP,ioos:station:wmo:42369:4,2020-08-06T08:00:00Z,27.1992,-90.2853,1342.0,4.2,11113222
BP,ioos:station:wmo:42369:4,2020-08-06T04:20:00Z,27.1990,-90.2854,1342.0,4.2,11113222
BP,ioos:station:wmo:42369:4,2020-08-06T04:40:00Z,27.1990,-90.2854,1342.0,4.2,11113222
BP,ioos:station:wmo:42369:4,2020-08-06T05:00:00Z,27.1990,-90.2854,1342.0,4.2,11113222
BP,ioos:station:wmo:42369:4,2020-08-06T05:20:00Z,27.1990,-90.2853,1342.0,4.2,11113222
BP,ioos:station:wmo:42369:4,2020-08-06T05:40:00Z,27.1991,-90.2853,1342.0,4.2,11113222
BP,ioos:station:wmo:42369:4,2020-08-06T06:20:00Z,27.1991,-90.2853,1342.0,4.2,11113222
BP,ioos:station:wmo:42369:4,2020-08-06T06:40:00Z,27.1992,-90.2854,1342.0,4.2,11113222
BP,ioos:station:wmo:42369:4,2020-08-06T07:00:00Z,27.1992,-90.2854,1342.0,4.2,11113222
BP,ioos:station:wmo:42369:4,2020-08-06T07:20:00Z,27.1992,-90.2854,1342.0,4.2,11113222
BP,ioos:station:wmo:42369:4,2020-08-06T07:40:00Z,27.1992,-90.2853,1342.0,4.2,11113222
BP,ioos:station:wmo:42369:4,2020-08-06T08:20:00Z,27.1992,-90.2853,1342.0,4.2,11113222
BP,ioos:station:wmo:42369:4,2020-08-06T08:40:00Z,27.1992,-90.2852,1342.0,4.2,11113222
BP,ioos:station:wmo:42369:4,2020-08-06T09:00:00Z,27.1992,-90.2850,1342.0,4.2,11113222
BP,ioos:station:wmo:42369:4,2020-08-06T09:20:00Z,27.1992,-90.2849,1342.0,4.2,11113222
BP,ioos:station:wmo:42369:4,2020-08-06T09:40:00Z,27.1991,-90.2847,1342.0,4.2,11113222
BP,ioos:station:wmo:42369:4,2020-08-06T10:00:00Z,27.1991,-90.2844,1342.0,4.2,11113222
BP,ioos:station:wmo:42369:4,2020-08-06T10:20:00Z,27.1991,-90.2842,1342.0,4.2,11113222
BP,ioos:station:wmo:42369:4,2020-08-06T10:40:00Z,27.1990,-90.2840,1342.0,4.2,11113222
BP,ioos:station:wmo:42369:4,2020-08-06T11:00:00Z,27.1990,-90.2838,1342.0,4.2,11113222
BP,ioos:station:wmo:42369:4,2020-08-06T11:20:00Z,27.1989,-90.2836,1342.0,4.2,11113222
BP,ioos:station:wmo:42369:4,2020-08-06T11:40:00Z,27.1989,-90.2834,1342.0,4.2,11113222
BP,ioos:station:wmo:42369:4,2020-08-06T12:00:00Z,27.1989,-90.2833,1342.0,4.2,11113222
BP,ioos:station:wmo:42369:4,2020-08-06T12:20:00Z,27.1989,-90.2833,1342.0,4.2,11113222
BP,ioos:station:wmo:42369:4,2020-08-06T12:40:00Z,27.1989,-90.2832,1342.0,4.2,11113222
BP,ioos:station:wmo:42369:4,2020-08-06T13:00:00Z,27.1989,-90.2831,1342.0,4.2,11113222
BP,ioos:station:wmo:42369:4,2020-08-06T13:20:00Z,27.1988,-90.2830,1342.0,4.2,11113222
BP,ioos:station:wmo:42369:4,2020-08-06T13:40:00Z,27.1988,-90.2828,1342.0,4.2,11113222
BP,ioos:station:wmo:42369:4,2020-08-06T14:00:00Z,27.1987,-90.2826,1342.0,4.2,11113222
BP,ioos:station:wmo:42369:4,2020-08-06T14:20:00Z,27.1987,-90.2823,1342.0,4.2,11113222
BP,ioos:station:wmo:42369:4,2020-08-06T14:40:00Z,27.1987,-90.2821,1342.0,4.2,11113222
BP,ioos:station:wmo:42369:4,2020-08-06T15:00:00Z,27.1987,-90.2820,1342.0,4.2,11113222
BP,ioos:station:wmo:42369:4,2020-08-06T16:00:00Z,27.1985,-90.2819,1342.0,4.2,11113222
BP,ioos:station:wmo:42369:4,2020-08-06T15:20:00Z,27.1986,-90.2819,1342.0,4.2,11113222
BP,ioos:station:wmo:42369:4,2020-08-06T15:40:00Z,27.1986,-90.2819,1342.0,4.2,11113222
BP,ioos:station:wmo:42369:4,2020-08-06T16:20:00Z,27.1984,-90.2820,1342.0,4.2,11113222
BP,ioos:station:wmo:42369:4,2020-08-06T16:40:00Z,27.1984,-90.2821,1342.0,4.2,11113222
BP,ioos:station:wmo:42369:4,2020-08-06T17:00:00Z,27.1985,-90.2822,1342.0,4.2,11113222
BP,ioos:station:wmo:42369:4,2020-08-06T17:20:00Z,27.1984,-90.2823,1342.0,4.2,11113222
BP,ioos:station:wmo:42369:4,2020-08-06T17:40:00Z,27.1984,-90.2823,1342.0,4.2,11113222
BP,ioos:station:wmo:42369:4,2020-08-06T18:00:00Z,27.1984,-90.2824,1342.0,4.2,11113222
BP,ioos:station:wmo:42369:4,2020-08-06T20:00:00Z,27.1982,-90.2826,1342.0,4.3,11113222
BP,ioos:station:wmo:42369:4,2020-08-06T18:20:00Z,27.1983,-90.2824,1342.0,4.2,11113222
BP,ioos:station:wmo:42369:4,2020-08-06T18:40:00Z,27.1983,-90.2824,1342.0,4.2,11113222
BP,ioos:station:wmo:42369:4,2020-08-06T19:00:00Z,27.1983,-90.2825,1342.0,4.3,11113222
BP,ioos:station:wmo:42369:4,2020-08-06T19:20:00Z,27.1982,-90.2825,1342.0,4.3,11113222
BP,ioos:station:wmo:42369:4,2020-08-06T19:40:00Z,27.1982,-90.2826,1342.0,4.3,11113222
BP,ioos:station:wmo:42369:4,2020-08-06T20:20:00Z,27.1981,-90.2827,1342.0,4.3,11113222
BP,ioos:station:wmo:42369:4,2020-08-06T20:40:00Z,27.1981,-90.2827,1342.0,4.3,11113222
BP,ioos:station:wmo:42369:4,2020-08-06T21:00:00Z,27.1981,-90.2826,1342.0,4.3,11113222
BP,ioos:station:wmo:42369:4,2020-08-06T22:00:00Z,27.1982,-90.2827,1342.0,4.3,11113222
BP,ioos:station:wmo:42369:4,2020-08-06T21:20:00Z,27.1981,-90.2826,1342.0,4.3,11113222
BP,ioos:station:wmo:42369:4,2020-08-06T21:40:00Z,27.1981,-90.2827,1342.0,4.3,11113222
BP,ioos:station:wmo:42369:4,2020-08-06T22:20:00Z,27.1981,-90.2828,1342.0,4.3,11113222
BP,ioos:station:wmo:42369:4,2020-08-06T22:40:00Z,27.1981,-90.2829,1342.0,4.3,11113222
BP,ioos:station:wmo:42369:4,2020-08-06T23:00:00Z,27.1981,-90.2831,1342.0,4.3,11113222
BP,ioos:station:wmo:42369:4,2020-08-06T23:20:00Z,27.1980,-90.2832,1342.0,4.3,11113222
BP,ioos:station:wmo:42369:4,2020-08-06T23:40:00Z,27.1979,-90.2834,1342.0,4.3,11113222
BP,ioos:station:wmo:42369:4,2020-08-07T00:00:00Z,27.1980,-90.2835,1342.0,4.3,11113222
BP,ioos:station:wmo:42369:4,2020-08-07T00:20:00Z,27.1981,-90.2836,1342.0,4.3,11113222
BP,ioos:station:wmo:42369:4,2020-08-07T00:40:00Z,27.1981,-90.2836,1342.0,4.3,11113222
BP,ioos:station:wmo:42369:4,2020-08-07T01:00:00Z,27.1981,-90.2837,1342.0,4.3,11113222
BP,ioos:station:wmo:42369:4,2020-08-07T01:20:00Z,27.1982,-90.2838,1342.0,4.3,11113222
BP,ioos:station:wmo:42369:4,2020-08-07T01:40:00Z,27.1982,-90.2839,1342.0,4.3,11113222
BP,ioos:station:wmo:42369:4,2020-08-07T02:00:00Z,27.1983,-90.2841,1342.0,4.2,11113222
BP,ioos:station:wmo:42369:4,2020-08-07T02:20:00Z,27.1984,-90.2844,1342.0,4.3,11113222
BP,ioos:station:wmo:42369:4,2020-08-07T02:40:00Z,27.1985,-90.2845,1342.0,4.2,11113222
BP,ioos:station:wmo:42369:4,2020-08-07T03:00:00Z,27.1986,-90.2847,1342.0,4.3,11113222
BP,ioos:station:wmo:42369:4,2020-08-07T03:20:00Z,27.1986,-90.2847,1342.0,4.2,11113222
BP,ioos:station:wmo:42369:4,2020-08-07T03:40:00Z,27.1987,-90.2848,1342.0,4.3,11113222
BP,ioos:station:wmo:42369:4,2020-08-07T04:00:00Z,27.1987,-90.2850,1342.0,4.3,11113222
BP,ioos:station:wmo:42369:4,2020-08-07T04:20:00Z,27.1988,-90.2851,1342.0,4.3,11113222
BP,ioos:station:wmo:42369:4,2020-08-07T04:40:00Z,27.1989,-90.2852,1342.0,4.3,11113222
BP,ioos:station:wmo:42369:4,2020-08-07T05:00:00Z,27.1989,-90.2852,1342.0,4.3,11113222
BP,ioos:station:wmo:42369:4,2020-08-07T05:20:00Z,27.1990,-90.2852,1342.0,4.3,11113222
BP,ioos:station:wmo:42369:4,2020-08-07T05:40:00Z,27.1990,-90.2852,1342.0,4.3,11113222
BP,ioos:station:wmo:42369:4,2020-08-07T07:00:00Z,27.1990,-90.2849,1342.0,4.3,11113222
BP,ioos:station:wmo:42369:4,2020-08-07T06:00:00Z,27.1990,-90.2852,1342.0,4.3,11113222
BP,ioos:station:wmo:42369:4,2020-08-07T06:20:00Z,27.1990,-90.2851,1342.0,4.3,11113222
BP,ioos:station:wmo:42369:4,2020-08-07T06:40:00Z,27.1990,-90.2850,1342.0,4.3,11113222
BP,ioos:station:wmo:42369:4,2020-08-07T07:20:00Z,27.1990,-90.2849,1342.0,4.3,11113222
BP,ioos:station:wmo:42369:4,2020-08-07T07:40:00Z,27.1991,-90.2848,1342.0,4.3,11113222
BP,ioos:station:wmo:42369:4,2020-08-07T08:00:00Z,27.1991,-90.2847,1342.0,4.3,11113222
BP,ioos:station:wmo:42369:4,2020-08-07T08:20:00Z,27.1990,-90.2846,1342.0,4.3,11113222
BP,ioos:station:wmo:42369:4,2020-08-07T08:40:00Z,27.1990,-90.2844,1342.0,4.3,11113222
BP,ioos:station:wmo:42369:4,2020-08-07T09:00:00Z,27.1989,-90.2842,1342.0,4.3,11113222
BP,ioos:station:wmo:42369:4,2020-08-07T09:20:00Z,27.1989,-90.2840,1342.0,4.2,11113222
BP,ioos:station:wmo:42369:4,2020-08-07T09:40:00Z,27.1989,-90.2838,1342.0,4.2,11113222
BP,ioos:station:wmo:42369:4,2020-08-07T10:00:00Z,27.1988,-90.2836,1342.0,4.2,11113222
BP,ioos:station:wmo:42369:4,2020-08-07T10:20:00Z,27.1988,-90.2834,1342.0,4.3,11113222
BP,ioos:station:wmo:42369:4,2020-08-01T00:00:00Z,27.1986,-90.2816,1342.0,4.3,11113222
BP,ioos:station:wmo:42369:4,2020-08-01T00:20:00Z,27.1985,-90.2816,1342.0,4.3,11113222
BP,ioos:station:wmo:42369:4,2020-08-01T00:40:00Z,27.1985,-90.2817,1342.0,4.3,11113222
BP,ioos:station:wmo:42369:4,2020-08-01T01:00:00Z,27.1984,-90.2819,1342.0,4.3,11113222
BP,ioos:station:wmo:42369:4,2020-08-01T01:20:00Z,27.1984,-90.2821,1342.0,4.3,11113222
BP,ioos:station:wmo:42369:4,2020-08-01T01:40:00Z,27.1984,-90.2823,1342.0,4.3,11113222
BP,ioos:station:wmo:42369:4,2020-08-01T02:00:00Z,27.1984,-90.2825,1342.0,4.3,11113222
BP,ioos:station:wmo:42369:4,2020-08-01T02:20:00Z,27.1985,-90.2826,1342.0,4.3,11113222
BP,ioos:station:wmo:42369:4,2020-08-01T02:40:00Z,27.1985,-90.2829,1342.0,4.3,11113222
BP,ioos:station:wmo:42369:4,2020-08-01T03:00:00Z,27.1985,-90.2831,1342.0,4.3,11113222
BP,ioos:station:wmo:42369:4,2020-08-01T03:20:00Z,27.1985,-90.2832,1342.0,4.3,11113222
BP,ioos:station:wmo:42369:4,2020-08-01T03:40:00Z,27.1986,-90.2833,1342.0,4.3,11113222
BP,ioos:station:wmo:42369:4,2020-08-01T04:00:00Z,27.1986,-90.2833,1342.0,4.3,11113222
BP,ioos:station:wmo:42369:4,2020-08-01T04:20:00Z,27.1986,-90.2834,1342.0,4.3,11113222
BP,ioos:station:wmo:42369:4,2020-08-01T04:40:00Z,27.1986,-90.2835,1342.0,4.3,11113222
BP,ioos:station:wmo:42369:4,2020-08-01T05:00:00Z,27.1986,-90.2836,1342.0,4.3,11113222
BP,ioos:station:wmo:42369:4,2020-08-01T05:20:00Z,27.1987,-90.2837,1342.0,4.3,11113222
BP,ioos:station:wmo:42369:4,2020-08-01T05:40:00Z,27.1987,-90.2838,1342.0,4.3,11113222
BP,ioos:station:wmo:42369:4,2020-08-01T06:00:00Z,27.1988,-90.2839,1342.0,4.3,11113222
BP,ioos:station:wmo:42369:4,2020-08-01T06:20:00Z,27.1988,-90.2840,1342.0,4.3,11113222
BP,ioos:station:wmo:42369:4,2020-08-01T06:40:00Z,27.1988,-90.2841,1342.0,4.3,11113222
BP,ioos:station:wmo:42369:4,2020-08-01T07:00:00Z,27.1989,-90.2842,1342.0,4.3,11113222
BP,ioos:station:wmo:42369:4,2020-08-01T07:20:00Z,27.1989,-90.2842,1342.0,4.3,11113222
BP,ioos:station:wmo:42369:4,2020-08-01T07:40:00Z,27.1990,-90.2843,1342.0,4.3,11113222
BP,ioos:station:wmo:42369:4,2020-08-01T08:00:00Z,27.1990,-90.2843,1342.0,4.3,11113222
BP,ioos:station:wmo:42369:4,2020-08-01T08:20:00Z,27.1991,-90.2843,1342.0,4.3,11113222
BP,ioos:station:wmo:42369:4,2020-08-01T08:40:00Z,27.1991,-90.2843,1342.0,4.3,11113222
BP,ioos:station:wmo:42369:4,2020-08-01T09:00:00Z,27.1991,-90.2844,1342.0,4.3,11113222
BP,ioos:station:wmo:42369:4,2020-08-01T09:20:00Z,27.1992,-90.2843,1342.0,4.3,11113222
BP,ioos:station:wmo:42369:4,2020-08-01T09:40:00Z,27.1993,-90.2843,1342.0,4.3,11113222
BP,ioos:station:wmo:42369:4,2020-08-01T10:00:00Z,27.1993,-90.2841,1342.0,4.3,11113222
BP,ioos:station:wmo:42369:4,2020-08-01T10:20:00Z,27.1993,-90.2840,1342.0,4.3,11113222
BP,ioos:station:wmo:42369:4,2020-08-01T10:40:00Z,27.1992,-90.2840,1342.0,4.3,11113222
BP,ioos:station:wmo:42369:4,2020-08-01T11:00:00Z,27.1991,-90.2840,1342.0,4.3,11113222
BP,ioos:station:wmo:42369:4,2020-08-01T11:20:00Z,27.1991,-90.2839,1342.0,4.3,11113222
BP,ioos:station:wmo:42369:4,2020-08-01T11:40:00Z,27.1991,-90.2837,1342.0,4.3,11113222
BP,ioos:station:wmo:42369:4,2020-08-01T12:00:00Z,27.1991,-90.2835,1342.0,4.3,11113222
BP,ioos:station:wmo:42369:4,2020-08-01T12:20:00Z,27.1991,-90.2834,1342.0,4.3,11113222
BP,ioos:station:wmo:42369:4,2020-08-01T12:40:00Z,27.1992,-90.2834,1342.0,4.3,11113222
BP,ioos:station:wmo:42369:4,2020-08-01T13:00:00Z,27.1992,-90.2833,1342.0,4.3,11113222
BP,ioos:station:wmo:42369:4,2020-08-01T13:20:00Z,27.1991,-90.2833,1342.0,4.3,11113222
BP,ioos:station:wmo:42369:4,2020-08-01T13:40:00Z,27.1991,-90.2833,1342.0,4.3,11113222
BP,ioos:station:wmo:42369:4,2020-08-01T14:00:00Z,27.1991,-90.2832,1342.0,4.3,11113222
BP,ioos:station:wmo:42369:4,2020-08-01T14:20:00Z,27.1992,-90.2832,1342.0,4.3,11113222
BP,ioos:station:wmo:42369:4,2020-08-01T14:40:00Z,27.1992,-90.2831,1342.0,4.3,11113222
BP,ioos:station:wmo:42369:4,2020-08-01T15:00:00Z,27.1991,-90.2830,1342.0,4.3,11113222
BP,ioos:station:wmo:42369:4,2020-08-01T15:20:00Z,27.1991,-90.2829,1342.0,4.3,11113222
BP,ioos:station:wmo:42369:4,2020-08-01T15:40:00Z,27.1991,-90.2829,1342.0,4.3,11113222
BP,ioos:station:wmo:42369:4,2020-08-01T16:00:00Z,27.1991,-90.2829,1342.0,4.3,11113222
BP,ioos:station:wmo:42369:4,2020-08-01T16:20:00Z,27.1990,-90.2829,1342.0,4.3,11113222
BP,ioos:station:wmo:42369:4,2020-08-01T16:40:00Z,27.1990,-90.2830,1342.0,4.3,11113222
BP,ioos:station:wmo:42369:4,2020-08-01T17:00:00Z,27.1990,-90.2830,1342.0,4.3,11113222
BP,ioos:station:wmo:42369:4,2020-08-01T17:20:00Z,27.1990,-90.2830,1342.0,4.3,11113222
BP,ioos:station:wmo:42369:4,2020-08-01T17:40:00Z,27.1989,-90.2830,1342.0,4.3,11113222
BP,ioos:station:wmo:42369:4,2020-08-01T18:00:00Z,27.1989,-90.2830,1342.0,4.3,11113222
BP,ioos:station:wmo:42369:4,2020-08-01T18:20:00Z,27.1989,-90.2829,1342.0,4.3,11113222
BP,ioos:station:wmo:42369:4,2020-08-01T18:40:00Z,27.1989,-90.2829,1342.0,4.3,11113222
BP,ioos:station:wmo:42369:4,2020-08-01T19:00:00Z,27.1989,-90.2828,1342.0,4.3,11113222
BP,ioos:station:wmo:42369:4,2020-08-01T19:20:00Z,27.1989,-90.2827,1342.0,4.3,11113222
BP,ioos:station:wmo:42369:4,2020-08-01T19:40:00Z,27.1989,-90.2826,1342.0,4.3,11113222
BP,ioos:station:wmo:42369:4,2020-08-01T20:00:00Z,27.1989,-90.2825,1342.0,4.3,11113222
BP,ioos:station:wmo:42369:4,2020-08-01T20:20:00Z,27.1988,-90.2824,1342.0,4.3,11113222
BP,ioos:station:wmo:42369:4,2020-08-01T20:40:00Z,27.1988,-90.2825,1342.0,4.3,11113222
BP,ioos:station:wmo:42369:4,2020-08-01T21:00:00Z,27.1988,-90.2826,1342.0,4.3,11113222
BP,ioos:station:wmo:42369:4,2020-08-01T21:20:00Z,27.1987,-90.2827,1342.0,4.3,11113222
BP,ioos:station:wmo:42369:4,2020-08-01T21:40:00Z,27.1987,-90.2828,1342.0,4.3,11113222